Location: Serpentine
(32.3617°S, 115.9768°E)
Time: 14:54:12
(UTC+08:00)

N. Korean satellite - Visible Passes

Search period start: 02 December 2021 00:00
Search period end: 12 December 2021 00:00
Orbit: 447 x 495 km, 97.3° (Epoch: 01 December)

Date Brightness Start Highest point End Pass type
(mag) Time Alt. Az. Time Alt. Az. Time Alt. Az.
03 Dec 9.0 04:16:46 10° NE 04:19:44 27° ESE 04:22:47 10° SSE visible
04 Dec 10.0 03:50:14 10° E 03:51:29 12° ESE 03:52:44 10° SE visible
06 Dec 8.5 04:24:06 10° NE 04:27:18 35° ESE 04:30:36 10° S visible
07 Dec 9.8 03:56:57 10° ENE 03:58:59 15° ESE 04:01:02 10° SE visible
09 Dec 7.9 04:31:25 10° NNE 04:34:46 45° ESE 04:38:15 10° S visible
10 Dec 9.6 04:03:52 10° ENE 04:06:23 19° ESE 04:08:57 10° SSE visible
